Location: Caltech
(34.1382°N, 118.1253°W)
Time: 00:47:05
(UTC-07:00)

SO-50 - Visible Passes

Search period start: 05 July 2015 00:00
Search period end: 15 July 2015 00:00
Orbit: 588 x 703 km, 64.6° (Epoch: 04 July)

Date Brightness Start Highest point End Pass type
(mag) Time Alt. Az. Time Alt. Az. Time Alt. Az.
05 Jul ? 01:51:20 10° NNW 01:54:53 41° N 01:54:53 41° N visible
06 Jul ? 00:37:56 10° N 00:41:05 17° NE 00:41:38 17° NE visible
06 Jul ? 02:17:13 10° NW 02:19:16 24° NW 02:19:16 24° NW visible
07 Jul ? 01:02:49 10° NNW 01:06:08 32° NNE 01:06:08 32° NNE visible
07 Jul ? 23:50:09 10° NNE 23:52:07 12° NE 23:53:05 12° NE visible
08 Jul ? 01:28:27 10° NNW 01:30:43 27° NNW 01:30:43 27° NNW visible
09 Jul ? 00:14:24 10° N 00:17:45 26° NE 00:17:45 26° NE visible
09 Jul ? 01:54:47 10° NW 01:55:24 13° NW 01:55:24 13° NW visible
10 Jul ? 00:39:46 10° NNW 00:42:30 32° NNW 00:42:30 32° NNW visible
10 Jul ? 23:26:08 10° N 23:29:39 20° NE 23:29:39 20° NE visible
11 Jul ? 01:05:47 10° NW 01:07:18 19° NW 01:07:18 19° NW visible
11 Jul ? 23:51:12 10° NNW 23:54:30 35° NNE 23:54:30 35° NNE visible
12 Jul ? 22:38:06 10° NNE 22:40:44 15° NE 22:41:45 14° ENE visible
13 Jul ? 00:16:56 10° NW 00:19:25 29° NW 00:19:25 29° NW visible
13 Jul ? 23:02:43 10° N 23:06:42 31° NE 23:06:42 31° NE visible
14 Jul ? 00:43:28 10° NW 00:44:22 14° WNW 00:44:22 14° WNW visible
14 Jul ? 21:50:53 10° NNE 21:51:43 10° NE 21:52:50 10° NE visible
14 Jul ? 23:28:12 10° NNW 23:31:43 46° NNW 23:31:43 46° NNW visible
